Hebron, KY

12:03 AM EDT on September 25, 2016 (GMT -0400)
Cincinnati-Northern KY International

Weather History for KCVG - April, 2014

Change the Weather History Date:

Sunday, April 13, 2014

  Actual Average Record
Temperature  
Mean Temperature 72 °F 53 °F  
Max Temperature 81 °F 64 °F 86 °F (1906)
Min Temperature 62 °F 43 °F 22 °F (1920)
Degree Days  
Heating Degree Days 0 12  
Month to date heating degree days 123 182  
Since 1 July heating degree days 5149 4675  
Cooling Degree Days 7 1  
Month to date cooling degree days 7 1  
Year to date cooling degree days 7 1  
Growing Degree Days 22 (Base 50)    
Moisture  
Dew Point 50 °F    
Average Humidity 47    
Maximum Humidity 67    
Minimum Humidity 26    
Precipitation  
Precipitation 0.00 in 0.12 in 1.90 in (1876)
Month to date precipitation 4.19 1.65  
Year to date precipitation 12.14 11.42  
Snow  
Snow 0.00 in 0.00 in 2.00 in (1920)
Month to date snowfall 0.0 0.4  
Since 1 July snowfall 46.9 22.0  
Snow Depth 0.00 in    
Sea Level Pressure  
Sea Level Pressure 29.86 in    
Wind  
Wind Speed 14 mph (SSW)    
Max Wind Speed 26 mph    
Max Gust Speed 37 mph    
Visibility 10 miles    
Events      
T = Trace of Precipitation, MM = Missing Value Source: NWS Daily Summary

Daily Weather History Graph

Daily Weather History Graph

Search for Another Location

Airport or City:

Trip Planner

Search our weather history database for the weather conditions in past years. The results will help you decide how hot, cold, wet, or windy it might be!

Date:

Astronomy

Apr. 13, 2014 Rise Set
Actual Time 7:04 AM EDT 8:14 PM EDT
Civil Twilight 6:37 AM EDT 8:41 PM EDT
Nautical Twilight 6:04 AM EDT 9:14 PM EDT
Astronomical Twilight 5:30 AM EDT 9:48 PM EDT
Moon 6:51 PM EDT (4/13) 6:02 AM EDT (4/13)
Length of Visible Light 14h 04m
Length of Day
13h 09m
Waxing Gibbous, 97% of the Moon is Illuminated
Apr 13
Waxing Gibbous
Apr 15
Full
Apr 22
Last Quarter
Apr 29
New
May 6
First Quarter

Hourly Weather History & Observations

Time (EDT) Temp. Dew Point Humidity Pressure Visibility Wind Dir Wind Speed Gust Speed Precip Events Conditions
12:52 AM 69.1 °F 51.1 °F 53% 29.86 in 10.0 mi SSW 12.7 mph - N/A   Clear
1:52 AM 69.1 °F 51.1 °F 53% 29.86 in 10.0 mi SSW 18.4 mph 25.3 mph N/A   Clear
2:52 AM 69.1 °F 51.1 °F 53% 29.86 in 10.0 mi SSW 15.0 mph 26.5 mph N/A   Clear
3:52 AM 66.9 °F 51.1 °F 57% 29.86 in 10.0 mi SSW 16.1 mph 24.2 mph N/A   Mostly Cloudy
4:52 AM 66.0 °F 51.1 °F 59% 29.88 in 10.0 mi SSW 13.8 mph 25.3 mph N/A   Mostly Cloudy
5:52 AM 66.0 °F 52.0 °F 60% 29.90 in 10.0 mi SSW 8.1 mph 16.1 mph N/A   Overcast
6:52 AM 64.0 °F 52.0 °F 65% 29.93 in 10.0 mi South 6.9 mph - N/A   Mostly Cloudy
7:52 AM 64.9 °F 53.1 °F 65% 29.94 in 10.0 mi South 10.4 mph - N/A   Overcast
8:52 AM 68.0 °F 54.0 °F 61% 29.94 in 10.0 mi South 15.0 mph - N/A   Overcast
9:52 AM 70.0 °F 55.0 °F 59% 29.93 in 10.0 mi SSW 20.7 mph 28.8 mph N/A   Overcast
10:52 AM 72.0 °F 54.0 °F 53% 29.92 in 10.0 mi SSW 17.3 mph 35.7 mph N/A   Overcast
11:52 AM 75.0 °F 55.0 °F 50% 29.91 in 10.0 mi SSW 20.7 mph 31.1 mph N/A   Overcast
12:52 PM 73.9 °F 55.0 °F 52% 29.90 in 10.0 mi SSW 24.2 mph 33.4 mph N/A   Overcast
1:52 PM 75.9 °F 55.0 °F 48% 29.89 in 10.0 mi SSW 13.8 mph 25.3 mph N/A   Overcast
2:52 PM 79.0 °F 53.1 °F 40% 29.87 in 10.0 mi SW 17.3 mph 25.3 mph N/A   Overcast
3:52 PM 80.1 °F 48.0 °F 32% 29.84 in 10.0 mi SSW 11.5 mph 26.5 mph N/A   Mostly Cloudy
4:52 PM 80.1 °F 46.9 °F 31% 29.81 in 10.0 mi South 12.7 mph 28.8 mph N/A   Mostly Cloudy
5:52 PM 80.1 °F 42.1 °F 26% 29.80 in 10.0 mi SSW 18.4 mph 31.1 mph N/A   Mostly Cloudy
6:52 PM 78.1 °F 42.1 °F 28% 29.80 in 10.0 mi SSW 13.8 mph 25.3 mph N/A   Mostly Cloudy
7:52 PM 77.0 °F 42.8 °F 29% 29.80 in 10.0 mi SSW 12.7 mph - N/A   Mostly Cloudy
8:52 PM 73.9 °F 44.1 °F 34% 29.77 in 10.0 mi South 11.5 mph - N/A   Overcast
9:52 PM 73.0 °F 45.0 °F 37% 29.75 in 10.0 mi South 10.4 mph - N/A   Mostly Cloudy
10:52 PM 70.0 °F 46.0 °F 42% 29.75 in 10.0 mi South 9.2 mph - N/A   Mostly Cloudy
11:52 PM 70.0 °F 46.0 °F 42% 29.73 in 10.0 mi South 10.4 mph - N/A   Overcast